MST,Max TemperatureF,Mean TemperatureF,Min TemperatureF,Max Dew PointF,MeanDew PointF,Min DewpointF,Max Humidity, Mean Humidity, Min Humidity, Max Sea Level PressureIn, Mean Sea Level PressureIn, Min Sea Level PressureIn, Max VisibilityMiles, Mean VisibilityMiles, Min VisibilityMiles, Max Wind SpeedMPH, Mean Wind SpeedMPH, Max Gust SpeedMPH,PrecipitationIn, CloudCover, Events, WindDirDegrees
2012-2-1,73,57,41,23,19,18,45,24,12,30.16,30.05,29.91,10,10,10,22,4,26,0.00,0,,171
2012-2-2,64,57,50,27,20,16,33,24,16,30.03,29.99,29.94,10,10,10,28,11,34,0.00,0,,359
2012-2-3,62,56,50,25,23,21,35,28,22,30.12,30.08,30.04,10,10,10,28,17,33,0.00,0,,360
2012-2-4,66,58,50,27,24,19,38,28,19,30.17,30.11,30.04,10,10,10,29,20,36,0.00,0,,9
2012-2-5,66,60,53,25,23,21,33,26,19,30.14,30.08,30.02,10,10,10,32,21,38,0.00,0,,7
2012-2-6,66,58,51,25,20,16,33,24,15,30.11,30.05,30.01,10,10,10,24,12,26,0.00,0,,6
2012-2-7,64,60,55,19,17,16,25,19,15,30.07,30.02,29.96,10,10,10,22,17,29,0.00,0,,14
2012-2-8,73,66,59,25,20,16,24,18,14,30.16,30.08,30.00,10,10,10,26,19,31,0.00,0,,13
2012-2-9,75,66,57,28,26,23,33,23,15,30.22,30.16,30.09,10,10,10,25,13,31,0.00,0,,358
2012-2-10,78,64,50,30,26,25,38,25,14,30.18,30.08,29.98,10,10,10,10,5,,0.00,0,,100
2012-2-11,77,64,50,32,26,19,43,25,12,29.98,29.84,29.71,10,10,10,22,5,31,0.00,0,,187
2012-2-12,69,58,46,34,32,30,54,37,25,29.90,29.82,29.77,10,10,10,13,5,,0.00,2,,172
2012-2-13,64,57,50,37,34,23,58,42,29,29.91,29.82,29.66,10,10,7,34,12,44,0.01,4,Thunderstorm,183
2012-2-14,57,50,44,36,29,19,62,42,26,29.98,29.90,29.80,10,10,10,14,7,18,0.00,3,Rain,321
2012-2-15,59,50,41,41,34,28,71,53,36,30.02,29.96,29.86,10,10,5,33,8,41,0.04,3,Rain-Thunderstorm,152
2012-2-16,66,57,48,39,34,28,71,47,24,30.11,30.05,29.99,10,10,10,31,22,39,0.00,1,Rain,357
2012-2-17,66,58,50,30,24,16,43,29,15,30.18,30.12,30.06,10,10,10,29,20,36,0.00,0,,2
2012-2-18,69,56,42,27,21,18,49,29,15,30.14,30.06,29.90,10,10,10,21,7,26,0.00,0,,186
2012-2-19,66,58,50,34,25,7,50,31,12,30.01,29.89,29.85,10,10,10,15,6,,0.00,1,,3
2012-2-20,64,53,42,23,16,10,37,24,13,30.14,30.08,30.02,10,10,10,22,6,28,0.00,0,,11
2012-2-21,69,60,50,25,17,12,35,21,12,30.21,30.15,30.11,10,10,10,25,11,31,0.00,0,,6
2012-2-22,77,66,55,32,27,19,33,23,18,30.16,30.07,29.93,10,10,10,23,13,26,0.00,0,,359
2012-2-23,77,62,48,34,28,25,50,29,16,29.98,29.88,29.83,10,10,10,26,6,33,0.00,0,,3
2012-2-24,71,63,55,25,16,9,25,18,9,30.21,30.09,30.02,10,10,10,26,19,36,0.00,0,,6
2012-2-25,77,60,44,18,14,10,31,17,8,30.09,29.98,29.86,10,10,10,10,3,,0.00,0,,35
2012-2-26,66,58,50,14,5,-4,16,11,7,29.99,29.88,29.82,10,10,10,37,20,47,0.00,0,,6
2012-2-27,68,54,39,36,17,5,36,23,15,29.82,29.75,29.66,10,10,7,24,7,34,0.00,1,,173
2012-2-28,60,54,48,36,29,23,62,40,25,30.20,30.07,29.73,10,10,10,23,14,28,0.00,1,Rain,157
2012-2-29,66,54,41,28,25,21,57,35,18,30.22,30.11,29.98,10,10,10,26,6,30,0.00,0,,166